Regional Weather Roundup
Issued by NWS Newport/Morehead, NC

Current Version | Previous Version | Graphics & Text | Print | Product List | Glossary Off
Versions: 1 2 3 4 5 6 7 8 9 10 11 12 13 14 15 16 17 18 19 20 21 22 23 24 25 26 27 28 29 30 31 32 33 34 35 36 37 38 39 40 41 42 43 44 45 46 47 48 49 50

000
ASUS42 KMHX 201310
RWRMHX
WEATHER ROUNDUP FOR EASTERN NORTH CAROLINA
NATIONAL WEATHER SERVICE NEWPORT/MOREHEAD CITY NC
900 AM EDT MON OCT 20 2014

NOTE: "FAIR" INDICATES FEW OR NO CLOUDS BELOW 12,000 FEET
WITH NO SIGNIFICANT WEATHER AND/OR OBSTRUCTIONS TO VISIBILITY

NCZ015>017-031-032-045>047-102-103-201400-
NORTH COAST

CITY           SKY/WX    TMP DP  RH WIND       PRES   REMARKS
EDENTON        MOSUNNY   52  49  89 CALM      30.19S
ELIZABETH CITY MOSUNNY   52  46  80 SW3       30.19R
KITTY HAWK     MOSUNNY   59  48  66 SW3       30.18R
MANTEO         MOSUNNY   58  46  64 CALM      30.20R

$$

NCZ045>047-081-094-103-104-201400-
CENTRAL COAST

CITY           SKY/WX    TMP DP  RH WIND       PRES   REMARKS
FRISCO         SUNNY     62  49  62 CALM      30.19R
SWANQUARTER      N/A     55 N/A N/A N2        30.15S

$$

NCZ095-097-098-100-101-201400-
SOUTHERN COAST

CITY           SKY/WX    TMP DP  RH WIND       PRES   REMARKS
BEAUFORT       SUNNY     59  46  62 CALM      30.19R
CEDAR ISLAND     N/A     66 N/A N/A CALM      30.21S
JACKSONVILLE   SUNNY     53  48  83 CALM      30.18R
PINEY ISLAND   SUNNY     64  44  48 N3        30.18S
WILMINGTON     SUNNY     56  46  69 CALM      30.17R


$$

NCZ011>013-027>030-043-044-078>080-089-090>093-098-201400-
COASTAL PLAIN

CITY           SKY/WX    TMP DP  RH WIND       PRES   REMARKS
AHOSKIE        SUNNY     43  41  93 CALM      30.19S
CLINTON        SUNNY     48  47  94 CALM      30.19R
ELIZABETHTOWN  SUNNY     50  46  84 CALM      30.18R
GOLDSBORO      MOSUNNY   50  49  97 CALM      30.17R
GREENVILLE     SUNNY     50  46  87 CALM      30.19S
HAVELOCK       MOSUNNY   53  48  83 CALM      30.20R
KENANSVILLE    SUNNY     48  47  95 CALM      30.19R
KINSTON        SUNNY     48  46  93 CALM      30.19S
NEW BERN       SUNNY     53  49  86 CALM      30.20R
RICHLANDS      SUNNY     48  45  87 CALM      30.18S
ROCKY MOUNT    MOSUNNY   49  46  90 S3        30.18R
WASHINGTON     SUNNY     47  45  93 CALM      30.19S
WHITEVILLE     SUNNY     52  48  86 CALM      30.17R

$$

AMZ130-135-150-152-154-156-158-170-250-252-270-ANZ085-086-088-633-658-670-201400-
MARINE OBSERVATIONS

STATION/POSITION TIME  TEMP    WIND        PRES    WAVE   SWELL
                       AIR SEA DIR/SP/G            HT/PER HT/PER
                 (UTC) (F)     (DEG/KT/KT) (MB)    (FT/S) (FT/S)
CHESAPEAKE LIGHT 1200   61     190/  5/  5 1021.9
64 E VA BEACH    1300   61 69  180/  4/  6 1021.6    3/11   3/11
DUCK             1300   60 68  240/  5/  6 1021.5
2 E DUCK         1300                        N/A     3/13   2/13
10 NE DUCK       1300      71                N/A     3/13   2/13
OREGON INLET     1300   61 66  270/  5/  7 1022.2
13E OREGON INLT  1300      73                N/A     4/13   2/13
HATTERAS CG      1300   62 66   10/  5/  5 1022.6
DIAMOND BUOY     1300   66     220/  2/  4 1022.2    3/11   3/11
17 S OCRACOKE    NOT AVBL
CAPE LOOKOUT     1200   60      10/  6/  9 1021.5
BEAUFORT LAB     1300   58 69   10/  5/  6 1021.4
30 SE NEW RIVER  1300   68 76  120/  2/  6 1021.0    2/11   2/11
5 SE WRIGHTSVLE  1200   63 73  140/  4/  6   N/A
225 S CAPE HAT   1220   71 80   80/  8/ 14 1021.1    4/ 9   3/ 9
41 SE CHARLESTON 1300   72 79   60/  4/  6 1019.9    2/10   2/10

$$


USA.gov is the U.S. government's official web portal to all federal, state and local government web resources and services.